596  
ASUS44 KJAN 282210  
RWRMS  
 
MISSISSIPPI HOURLY WEATHER ROUNDUP  
NATIONAL WEATHER SERVICE JACKSON MS  
400 PM CST SUN FEB 28 2021  
 
NOTE: "FAIR: INDICATES FEW OR NO CLOUDS BELOW 12,000 FEET WITH NO  
SIGNIFICANT WEATHER AND/OR S TO VISIBILITY
.  
 
MSZ001>002-007>008-010>013-018>021-025>028-034>036-282300-  
NORTHWEST MISSISSIPPI  
 
CITY SKY/WX TMP DP RH WIND PRES REMARKS
 
BATESVILLE FAIR 77 64 65 SW16G26 29.86S  
CLARKSDALE N/A 77 68 73 S14G23 29.86R  
CLEVELAND FAIR 75 68 78 S14 29.87S  
GREENWOOD PTSUNNY 80 65 59 SW10 29.88F  
GREENVILLE PTSUNNY 79 67 66 S21G29 29.85F  
OLIVE BRANCH PTSUNNY 70 68 94 S15 29.84F  
OXFORD PTSUNNY 73 64 73 VRB7 29.89F  
TUNICA CLOUDY 72 66 83 S15 29.86S  
WINONA LGT RAIN 76 64 64 S6 29.90S  

 
 
MSZ003>006-009-014>017-022>024-029>033-037>039-282300-  
NORTHEAST MISSISSIPPI  
 
CITY SKY/WX TMP DP RH WIND PRES REMARKS
 
ABERDEEN MOCLDY 81 64 57 S8G16 29.90F  
COLUMBUS AFB PTSUNNY 81 61 51 S12 29.89F  
CORINTH MOCLDY 75 64 69 S12 29.86F  
GOLDN TRIANGLE CLOUDY 79 63 57 S14 29.91F  
STARKVILLE CLOUDY 79 61 53 S10G17 29.92F  
TUPELO CLOUDY 79 63 57 S14 29.88F  

 
 
MSZ040-058-282300-  
CENTRAL MISSISSIPPI  
 
CITY SKY/WX TMP DP RH WIND PRES REMARKS
 
JACKSON INTL PTSUNNY 82 63 52 S20G25 29.91F  
JACKSON HAWKNS PTSUNNY 83 61 47 S14G23 29.91F  
MADISON FAIR 79 63 57 S10G18 29.91F  
MERIDIAN KEY PTSUNNY 81 59 47 S13 29.95F  
MERIDIAN NAS PTSUNNY 81 60 48 S10G18 29.95F  
PRESTON MOCLDY 81 60 48 S9 29.91F  
RAYMOND FAIR 82 68 61 S9G21 29.90F  
VICKSBURG VKS CLOUDY 81 64 57 S13G20 29.89S  

 
 
MSZ059>079-282300-  
SOUTH MISSISSIPPI  
 
CITY SKY/WX TMP DP RH WIND PRES REMARKS
 
BROOKHAVEN FAIR 81 66 61 SE9 29.94F  
HATTIESBURG MOSUNNY 81 63 54 S16G24 29.97F  
LAUREL MOCLDY 83 62 49 S16 29.95F  
MCCOMB CLOUDY 81 67 62 S12 29.94F  
NATCHEZ CLOUDY 77 69 76 SW8 29.93F  
PINE BELT PTSUNNY 83 65 54 S12G18 29.97F  

 
 
MSZ080>082-282300-  
COASTAL MISSISSIPPI  
 
CITY SKY/WX TMP DP RH WIND PRES REMARKS
 
BAY ST LOUIS PTSUNNY 68 70 100 S14 29.98F  
BILOXI PTSUNNY 72 68 88 S5 30.00F  
PASCAGOULA CLOUDY 79 69 71 S9 30.01F  
GULFPORT CLOUDY 76 68 76 SE8 30.00S  

 
 
LAZ007>009-015>016-023>026-282300-  
NORTHEAST LOUISIANA  
 
CITY SKY/WX TMP DP RH WIND PRES REMARKS
 
BASTROP FAIR 79 65 63 S8 29.87F  
TALLULAH/VBURG PTSUNNY 83 65 54 MISG 29.89  
VIDALIA CLOUDY 76 69 79 S9 29.91F  

 
 
 
CLICK HERE TO GO TO PREVIOUS BULLETINS.

The Nexlab MS Page Main Text Page